Location: Newport
(44.6370°N, 124.0520°W)
Time: 13:37:51
(UTC-08:00)

N. Korean satellite - Pass Details

Date: 08 October 2017
Orbit: 461 x 513 km, 97.2° (Epoch: 11 December)

Event Time Altitude Azimuth Distance (km) Brightness Sun altitude
Rises 20:22:22 0° 210° (SSW) 2,570 10.5 -18.4°
Reaches altitude 10° 20:25:19 10° 237° (WSW) 1,682 9.9 -18.9°
Maximum altitude 20:27:14 14° 269° (W) 1,458 10.0 -19.3°
Drops below altitude 10° 20:29:08 10° 301° (WNW) 1,673 10.3 -19.6°
Sets 20:32:04 0° 328° (NNW) 2,547 10.9 -20.1°
